Time,TemperatureF,DewpointF,PressureIn,WindDirection,WindDirectionDegrees,WindSpeedMPH,WindSpeedGustMPH,Humidity,HourlyPrecipIn,Conditions,Clouds,dailyrainin,SoftwareType,DateUTC
2013-06-18 00:09:00,53.9,50.0,30.00,ENE,78,0.0,1.0,85,0.00,,,0.00,weatherlink.com 1.10,2013-06-18 07:09:00,
2013-06-18 00:24:00,53.6,50.0,30.00,ENE,78,0.0,0.0,86,0.00,,,0.00,weatherlink.com 1.10,2013-06-18 07:24:00,
2013-06-18 00:39:00,53.0,49.0,29.99,ENE,78,0.0,0.0,86,0.00,,,0.00,weatherlink.com 1.10,2013-06-18 07:39:00,
2013-06-18 00:54:00,52.5,49.0,29.99,ENE,78,0.0,0.0,87,0.00,,,0.00,weatherlink.com 1.10,2013-06-18 07:54:00,
2013-06-18 01:09:00,52.2,49.0,29.99,ENE,78,0.0,1.0,88,0.00,,,0.00,weatherlink.com 1.10,2013-06-18 08:09:00,
2013-06-18 01:24:00,52.0,49.0,29.99,ENE,78,0.0,0.0,89,0.00,,,0.00,weatherlink.com 1.10,2013-06-18 08:24:00,
2013-06-18 01:39:00,51.6,49.0,29.99,ENE,78,0.0,0.0,89,0.00,,,0.00,weatherlink.com 1.10,2013-06-18 08:39:00,
2013-06-18 01:54:00,51.3,49.0,29.99,ENE,78,0.0,0.0,90,0.00,,,0.00,weatherlink.com 1.10,2013-06-18 08:54:00,
2013-06-18 02:09:00,50.9,48.0,29.98,ENE,78,0.0,0.0,90,0.00,,,0.00,weatherlink.com 1.10,2013-06-18 09:09:00,
2013-06-18 02:24:00,50.6,48.0,29.98,ENE,78,0.0,0.0,91,0.00,,,0.00,weatherlink.com 1.10,2013-06-18 09:24:00,
2013-06-18 02:39:00,50.4,48.0,29.98,ENE,78,0.0,0.0,91,0.00,,,0.00,weatherlink.com 1.10,2013-06-18 09:39:00,
2013-06-18 02:54:00,50.0,48.0,29.98,ENE,78,0.0,0.0,91,0.00,,,0.00,weatherlink.com 1.10,2013-06-18 09:54:00,
2013-06-18 03:09:00,49.7,47.0,29.98,ENE,78,0.0,0.0,91,0.00,,,0.00,weatherlink.com 1.10,2013-06-18 10:09:00,
2013-06-18 03:24:00,49.5,47.0,29.98,ENE,78,0.0,0.0,91,0.00,,,0.00,weatherlink.com 1.10,2013-06-18 10:24:00,
2013-06-18 03:40:00,49.2,47.0,29.98,ENE,78,0.0,0.0,91,0.00,,,0.00,weatherlink.com 1.10,2013-06-18 10:40:00,
2013-06-18 03:55:00,49.0,47.0,29.99,ENE,78,0.0,0.0,92,0.00,,,0.00,weatherlink.com 1.10,2013-06-18 10:55:00,
2013-06-18 04:10:00,48.7,47.0,29.99,ENE,78,0.0,0.0,92,0.00,,,0.00,weatherlink.com 1.10,2013-06-18 11:10:00,
2013-06-18 04:25:00,48.5,46.0,29.99,ENE,78,0.0,0.0,92,0.00,,,0.00,weatherlink.com 1.10,2013-06-18 11:25:00,
2013-06-18 04:40:00,48.3,46.0,29.99,ENE,78,0.0,0.0,92,0.00,,,0.00,weatherlink.com 1.10,2013-06-18 11:40:00,
2013-06-18 04:55:00,48.0,46.0,29.99,ENE,78,0.0,0.0,92,0.00,,,0.00,weatherlink.com 1.10,2013-06-18 11:55:00,
2013-06-18 05:10:00,47.6,45.0,29.99,ENE,78,0.0,0.0,92,0.00,,,0.00,weatherlink.com 1.10,2013-06-18 12:10:00,
2013-06-18 05:25:00,47.4,46.0,29.99,ENE,78,0.0,0.0,93,0.00,,,0.00,weatherlink.com 1.10,2013-06-18 12:25:00,
2013-06-18 05:40:00,47.2,45.0,29.99,ENE,78,0.0,0.0,93,0.00,,,0.00,weatherlink.com 1.10,2013-06-18 12:40:00,
2013-06-18 05:55:00,47.0,45.0,29.99,ENE,78,0.0,0.0,93,0.00,,,0.00,weatherlink.com 1.10,2013-06-18 12:55:00,
2013-06-18 06:10:00,47.0,45.0,30.00,ENE,78,0.0,0.0,93,0.00,,,0.00,weatherlink.com 1.10,2013-06-18 13:10:00,
2013-06-18 06:25:00,47.0,45.0,30.00,ENE,78,0.0,0.0,93,0.00,,,0.00,weatherlink.com 1.10,2013-06-18 13:25:00,
2013-06-18 06:40:00,47.6,46.0,30.00,ENE,78,0.0,0.0,94,0.00,,,0.00,weatherlink.com 1.10,2013-06-18 13:40:00,
2013-06-18 06:55:00,49.2,48.0,30.00,ENE,78,0.0,0.0,94,0.00,,,0.00,weatherlink.com 1.10,2013-06-18 13:55:00,
2013-06-18 07:10:00,51.5,50.0,30.00,ENE,78,0.0,0.0,94,0.00,,,0.00,weatherlink.com 1.10,2013-06-18 14:10:00,
2013-06-18 07:25:00,53.8,51.0,30.00,ENE,69,0.0,1.0,91,0.00,,,0.00,weatherlink.com 1.10,2013-06-18 14:25:00,
2013-06-18 07:40:00,56.3,51.0,30.00,East,86,0.0,2.0,82,0.00,,,0.00,weatherlink.com 1.10,2013-06-18 14:40:00,
2013-06-18 07:55:00,57.8,50.0,30.00,East,97,0.0,1.0,76,0.00,,,0.00,weatherlink.com 1.10,2013-06-18 14:55:00,
2013-06-18 08:10:00,59.6,51.0,30.01,ENE,67,3.0,3.0,72,0.00,,,0.00,weatherlink.com 1.10,2013-06-18 15:10:00,
2013-06-18 08:25:00,60.0,50.0,30.00,ENE,70,2.0,3.0,70,0.00,,,0.00,weatherlink.com 1.10,2013-06-18 15:25:00,
2013-06-18 08:40:00,61.4,50.0,30.00,East,79,0.0,5.0,66,0.00,,,0.00,weatherlink.com 1.10,2013-06-18 15:40:00,
2013-06-18 08:55:00,62.1,48.0,30.00,East,96,0.0,8.0,61,0.00,,,0.00,weatherlink.com 1.10,2013-06-18 15:55:00,
2013-06-18 09:10:00,63.2,48.0,30.01,ENE,78,5.0,7.0,58,0.00,,,0.00,weatherlink.com 1.10,2013-06-18 16:10:00,
2013-06-18 09:25:00,64.1,48.0,30.00,ENE,77,8.0,10.0,57,0.00,,,0.00,weatherlink.com 1.10,2013-06-18 16:25:00,
2013-06-18 09:40:00,63.7,47.0,30.01,East,86,7.0,10.0,55,0.00,,,0.00,weatherlink.com 1.10,2013-06-18 16:40:00,
2013-06-18 09:55:00,62.9,47.0,30.00,East,89,1.0,12.0,56,0.00,,,0.00,weatherlink.com 1.10,2013-06-18 16:55:00,
2013-06-18 10:10:00,63.5,47.0,30.00,East,80,0.0,7.0,56,0.00,,,0.00,weatherlink.com 1.10,2013-06-18 17:10:00,
2013-06-18 10:25:00,65.6,48.0,30.00,ENE,74,5.0,7.0,54,0.00,,,0.00,weatherlink.com 1.10,2013-06-18 17:25:00,
2013-06-18 10:40:00,65.8,48.0,30.00,ESE,103,5.0,9.0,52,0.00,,,0.00,weatherlink.com 1.10,2013-06-18 17:40:00,
2013-06-18 10:55:00,65.7,46.0,30.00,East,96,7.0,11.0,49,0.00,,,0.00,weatherlink.com 1.10,2013-06-18 17:55:00,
2013-06-18 11:10:00,67.6,47.0,30.00,East,91,0.0,8.0,48,0.00,,,0.00,weatherlink.com 1.10,2013-06-18 18:10:00,
2013-06-18 11:25:00,68.4,47.0,30.00,ESE,115,3.0,12.0,47,0.00,,,0.00,weatherlink.com 1.10,2013-06-18 18:25:00,
2013-06-18 11:40:00,66.6,48.0,30.00,NE,36,5.0,9.0,51,0.00,,,0.00,weatherlink.com 1.10,2013-06-18 18:40:00,
2013-06-18 11:55:00,66.8,47.0,30.00,ENE,59,4.0,13.0,49,0.00,,,0.00,weatherlink.com 1.10,2013-06-18 18:55:00,
2013-06-18 12:10:00,67.2,46.0,30.00,ENE,67,1.0,10.0,46,0.00,,,0.00,weatherlink.com 1.10,2013-06-18 19:10:00,
2013-06-18 12:25:00,68.5,46.0,29.99,SE,142,0.0,10.0,44,0.00,,,0.00,weatherlink.com 1.10,2013-06-18 19:25:00,
2013-06-18 12:40:00,69.9,45.0,29.98,East,86,2.0,9.0,41,0.00,,,0.00,weatherlink.com 1.10,2013-06-18 19:40:00,
2013-06-18 12:56:00,71.7,47.0,29.99,East,101,3.0,11.0,42,0.00,,,0.00,weatherlink.com 1.10,2013-06-18 19:56:00,
2013-06-18 13:11:00,72.1,44.0,29.98,East,80,3.0,7.0,36,0.00,,,0.00,weatherlink.com 1.10,2013-06-18 20:11:00,
2013-06-18 13:26:00,70.6,43.0,29.98,NE,55,2.0,10.0,37,0.00,,,0.00,weatherlink.com 1.10,2013-06-18 20:26:00,
2013-06-18 13:41:00,73.6,43.0,29.98,NE,41,3.0,8.0,34,0.00,,,0.00,weatherlink.com 1.10,2013-06-18 20:41:00,
2013-06-18 13:56:00,73.0,41.0,29.97,East,84,2.0,7.0,32,0.00,,,0.00,weatherlink.com 1.10,2013-06-18 20:56:00,
2013-06-18 14:11:00,72.8,44.0,29.98,East,89,2.0,10.0,35,0.00,,,0.00,weatherlink.com 1.10,2013-06-18 21:11:00,
2013-06-18 14:26:00,74.1,41.0,29.98,East,88,3.0,6.0,30,0.00,,,0.00,weatherlink.com 1.10,2013-06-18 21:26:00,
2013-06-18 14:41:00,74.2,42.0,29.97,ESE,102,2.0,7.0,31,0.00,,,0.00,weatherlink.com 1.10,2013-06-18 21:41:00,
2013-06-18 14:56:00,73.7,43.0,29.97,East,81,2.0,11.0,33,0.00,,,0.00,weatherlink.com 1.10,2013-06-18 21:56:00,
2013-06-18 15:11:00,73.9,45.0,29.96,SW,223,0.0,9.0,36,0.00,,,0.00,weatherlink.com 1.10,2013-06-18 22:11:00,
2013-06-18 15:26:00,74.5,46.0,29.96,East,91,3.0,10.0,36,0.00,,,0.00,weatherlink.com 1.10,2013-06-18 22:26:00,
2013-06-18 15:41:00,74.6,45.0,29.96,East,90,6.0,8.0,35,0.00,,,0.00,weatherlink.com 1.10,2013-06-18 22:41:00,
2013-06-18 15:56:00,73.7,43.0,29.96,SE,124,2.0,11.0,33,0.00,,,0.00,weatherlink.com 1.10,2013-06-18 22:56:00,
2013-06-18 16:11:00,73.4,43.0,29.95,East,79,3.0,10.0,33,0.00,,,0.00,weatherlink.com 1.10,2013-06-18 23:11:00,
2013-06-18 16:26:00,73.2,44.0,29.95,NNE,28,2.0,9.0,35,0.00,,,0.00,weatherlink.com 1.10,2013-06-18 23:26:00,
2013-06-18 16:41:00,73.0,45.0,29.95,ENE,74,3.0,9.0,37,0.00,,,0.00,weatherlink.com 1.10,2013-06-18 23:41:00,
2013-06-18 16:56:00,72.1,47.0,29.94,East,96,7.0,10.0,41,0.00,,,0.00,weatherlink.com 1.10,2013-06-18 23:56:00,
2013-06-18 17:11:00,71.5,46.0,29.95,ESE,107,0.0,8.0,40,0.00,,,0.00,weatherlink.com 1.10,2013-06-19 00:11:00,
2013-06-18 17:26:00,71.7,47.0,29.95,East,82,2.0,9.0,42,0.00,,,0.00,weatherlink.com 1.10,2013-06-19 00:26:00,
2013-06-18 17:41:00,70.8,46.0,29.95,East,88,1.0,7.0,42,0.00,,,0.00,weatherlink.com 1.10,2013-06-19 00:41:00,
2013-06-18 17:56:00,68.3,45.0,29.94,East,83,0.0,13.0,44,0.00,,,0.00,weatherlink.com 1.10,2013-06-19 00:56:00,
2013-06-18 18:11:00,67.0,45.0,29.95,East,88,7.0,9.0,46,0.00,,,0.00,weatherlink.com 1.10,2013-06-19 01:11:00,
2013-06-18 18:26:00,65.9,45.0,29.94,East,94,7.0,9.0,47,0.00,,,0.00,weatherlink.com 1.10,2013-06-19 01:26:00,
2013-06-18 18:41:00,64.9,45.0,29.94,ESE,123,0.0,11.0,49,0.00,,,0.00,weatherlink.com 1.10,2013-06-19 01:41:00,
2013-06-18 18:56:00,64.0,46.0,29.94,East,88,1.0,3.0,52,0.00,,,0.00,weatherlink.com 1.10,2013-06-19 01:56:00,
2013-06-18 19:11:00,63.4,46.0,29.95,East,83,5.0,9.0,53,0.00,,,0.00,weatherlink.com 1.10,2013-06-19 02:11:00,
2013-06-18 19:26:00,62.4,46.0,29.95,SE,137,0.0,6.0,55,0.00,,,0.00,weatherlink.com 1.10,2013-06-19 02:26:00,
2013-06-18 19:41:00,61.5,46.0,29.95,East,82,0.0,4.0,57,0.00,,,0.00,weatherlink.com 1.10,2013-06-19 02:41:00,
2013-06-18 19:56:00,60.6,46.0,29.95,East,96,3.0,6.0,58,0.00,,,0.00,weatherlink.com 1.10,2013-06-19 02:56:00,
2013-06-18 20:11:00,60.0,46.0,29.96,NE,46,0.0,5.0,60,0.00,,,0.00,weatherlink.com 1.10,2013-06-19 03:11:00,
2013-06-18 20:26:00,59.3,46.0,29.97,ESE,113,4.0,9.0,61,0.00,,,0.00,weatherlink.com 1.10,2013-06-19 03:26:00,
2013-06-18 20:41:00,58.2,45.0,29.97,East,98,0.0,6.0,62,0.00,,,0.00,weatherlink.com 1.10,2013-06-19 03:41:00,
2013-06-18 20:56:00,57.3,45.0,29.97,East,84,0.0,3.0,64,0.00,,,0.00,weatherlink.com 1.10,2013-06-19 03:56:00,
2013-06-18 21:11:00,56.3,45.0,29.97,East,86,0.0,5.0,66,0.00,,,0.00,weatherlink.com 1.10,2013-06-19 04:11:00,
2013-06-18 21:26:00,55.7,45.0,29.98,East,94,0.0,5.0,67,0.00,,,0.00,weatherlink.com 1.10,2013-06-19 04:26:00,
2013-06-18 21:41:00,55.0,45.0,29.99,East,94,0.0,2.0,69,0.00,,,0.00,weatherlink.com 1.10,2013-06-19 04:41:00,
2013-06-18 21:56:00,54.7,45.0,30.00,East,94,0.0,3.0,70,0.00,,,0.00,weatherlink.com 1.10,2013-06-19 04:56:00,
2013-06-18 22:11:00,54.4,45.0,30.00,ENE,74,0.0,4.0,71,0.00,,,0.00,weatherlink.com 1.10,2013-06-19 05:11:00,
2013-06-18 22:26:00,54.4,45.0,30.01,ESE,103,5.0,6.0,71,0.00,,,0.00,weatherlink.com 1.10,2013-06-19 05:26:00,
2013-06-18 22:41:00,54.1,45.0,30.00,East,90,1.0,4.0,72,0.00,,,0.00,weatherlink.com 1.10,2013-06-19 05:41:00,
2013-06-18 22:56:00,53.9,45.0,30.00,South,184,0.0,3.0,72,0.00,,,0.00,weatherlink.com 1.10,2013-06-19 05:56:00,
2013-06-18 23:11:00,53.3,45.0,30.01,East,88,0.0,3.0,73,0.00,,,0.00,weatherlink.com 1.10,2013-06-19 06:11:00,
2013-06-18 23:26:00,53.0,45.0,30.00,WSW,252,0.0,6.0,73,0.00,,,0.00,weatherlink.com 1.10,2013-06-19 06:26:00,
2013-06-18 23:41:00,52.7,45.0,30.00,ESE,109,3.0,6.0,74,0.00,,,0.00,weatherlink.com 1.10,2013-06-19 06:41:00,
2013-06-18 23:56:00,52.5,44.0,30.00,East,86,0.0,3.0,74,0.00,,,0.00,weatherlink.com 1.10,2013-06-19 06:56:00,